Regional Weather Roundup
Issued by NWS Upton, NY

Current Version | Previous Version | Graphics & Text | Print | Product List | Glossary On
Versions: 1 2 3 4 5 6 7 8 9 10 11 12 13 14 15 16 17 18 19 20 21 22 23 24 25 26 27 28 29 30 31 32 33 34 35 36 37 38 39 40 41 42 43 44 45 46 47 48 49 50
000
ASUS41 KOKX 211005
RWROKX

REGIONAL WEATHER ROUNDUP
NATIONAL WEATHER SERVICE NEW YORK NY
600 AM EDT THU AUG 21 2014

NOTE: "FAIR" INDICATES FEW OR NO CLOUDS BELOW 12,000 FEET WITH NO
SIGNIFICANT WEATHER AND/OR OBSTRUCTIONS TO VISIBILITY.

NYZ071-072-176-178-NJZ106-104-211100-
NEW YORK CITY METRO AREA


CITY           SKY/WX    TMP DP  RH WIND       PRES   REMARKS
CENTRAL PARK   CLOUDY    66  63  90 CALM      30.06S
LAGUARDIA APRT LGT RAIN  69  61  75 CALM      30.03R
KENNEDY INTL   LGT RAIN  72  62  71 CALM      30.04S
NEWARK/LIBERTY MOCLDY    67  62  84 CALM      30.03R
BRNX BOT. GARD   N/A     66  64  94 CALM      30.03F
TETERBORO      LGT RAIN  67  63  87 CALM      30.03R
$$

NYZ177-179-078>081-211100-
LONG ISLAND NEW YORK

CITY           SKY/WX    TMP DP  RH WIND       PRES   REMARKS
FARMINGDALE    MOCLDY    66  63  90 E5        30.04S
ISLIP          MOCLDY    65  61  87 CALM      30.03S
SHIRLEY        PTCLDY    60  58  92 CALM      30.05S
WESTHAMPTON    CLEAR     57  54  89 CALM      30.06S
MONTAUK POINT    N/A     66  62  87 N6        30.06R
$$

NYZ052-065-067-211100-
HUDSON VALLEY

CITY           SKY/WX    TMP DP  RH WIND       PRES   REMARKS
WHITE PLAINS   DRIZZLE   68  62  81 CALM      30.04S
NEWBURGH       MOCLDY    64  64 100 CALM      30.05R
MONTGOMERY     CLOUDY    64  62  93 CALM      30.03S
POUGHKEEPSIE   CLOUDY    65  62  90 E3        30.03R
ALBANY         LGT RAIN  66  62  87 SE5       30.02R
$$

NJZ001-105-106-008-010-013-015-019>022-104-211100-
NEW JERSEY

CITY           SKY/WX    TMP DP  RH WIND       PRES   REMARKS
NEWARK/LIBERTY MOCLDY    67  62  84 CALM      30.03R
TETERBORO      LGT RAIN  67  63  87 CALM      30.03R
CALDWELL       CLOUDY    65  62  90 E3        30.04R
MORRISTOWN     CLOUDY    66  64  94 CALM      30.04R
SOMERVILLE     CLOUDY    64  62  93 CALM      30.02R
LINDEN         CLOUDY    71  66  84 CALM      30.05R
SUSSEX         CLOUDY    66  63  90 CALM      30.02F
ANDOVER          N/A     66  60  81 SW3       30.03S
TRENTON        CLEAR     67  62  84 CALM      30.03R
MILLVILLE      CLEAR     63  61  93 CALM      30.02S
ATLANTIC CITY  CLEAR     64  62  93 CALM      30.03R
WRIGHTSTOWN    CLEAR     63  62  97 CALM      30.01R
TOMS RIVER     CLEAR     63  59  88 CALM      30.03S
BELMAR         MOCLDY    66  63  88 CALM      30.03R
$$

PAZ047>061-062-071-211100-
EASTERN PENNSYLVANIA

CITY           SKY/WX    TMP DP  RH WIND       PRES   REMARKS
PHILADELPHIA   PTCLDY    69  64  84 SE5       30.03R
ALLENTOWN      PTCLDY    68  62  81 E3        30.02R
SCRANTON       MOCLDY    68  62  81 CALM      30.03R
$$

CTZ002-004>006-009-010-012-RIZ004-006-007-MAZ004-011-015-211100-
SOUTHERN NEW ENGLAND
 IN CT

CITY           SKY/WX    TMP DP  RH WIND       PRES   REMARKS
BRADLEY INTL   MOCLDY    64  61  90 CALM      30.05R
HARTFORD       MOCLDY    64  61  90 SE3       30.05S
DANBURY        LGT RAIN  65  62  90 CALM      30.06S
WTRBRY/OXFORD  MOCLDY    64  59  82 CALM      30.08R
BRIDGEPORT     MOCLDY    70  65  84 N3        30.04S
MERIDEN        PTCLDY    62  60  93 CALM      30.05S
NEW HAVEN      MOCLDY    67  62  84 CALM      30.05S
CHESTER        FAIR      63  61  94 CALM      30.07S
GROTON         MOCLDY    61  60  97 N3        30.05R
WILLIMANTIC    MOCLDY    61  58  90 CALM      30.07R

 IN RI

CITY           SKY/WX    TMP DP  RH WIND       PRES   REMARKS
PROVIDENCE     CLOUDY    61  58  90 NW6       30.07R
BLOCK ISLAND   MOCLDY    63  59  88 N3        30.05R
WESTERLY       MOCLDY    58  57  97 N3        30.05R

 IN MA

CITY           SKY/WX    TMP DP  RH WIND       PRES   REMARKS
BOSTON         MOCLDY    63  60  90 NW5       30.07R
WORCESTER      CLOUDY    61  55  81 CALM      30.09R
WESTFIELD      CLOUDY    65  61  87 CALM      30.06R
PROVINCETOWN   CLOUDY    64  63  94 MISG      30.05S
NANTUCKET      CLOUDY    64  62  93 NE6       30.03R
$$

ANZ330-335-338-340-345-350-353-355-211100-
COASTAL MARINE OBSERVATIONS


STATION/POSITION TIME  SKY/WX   TEMP    WIND        PRES    VSBY  WAVE
                                AIR SEA DIR/SP/G                  HT/PER
                 (UTC)          (F)     (DEG/KT/KT) (MB)    (MI)  (FT/S)
NY HARB ENTRANCE NOT AVBL
4S FIRE IS       NOT AVBL
23SW MTP         1000            66 69              1016.5          2/ 5
HUDSON CANYON    1000            70 72  350/  8/ 10 1016.4          3/ 6
EXECUTION ROCKS  1000            71 73  320/  6/  8   N/A
WESTERN LI SOUND 1000            71     360/  4/  6   N/A           0
CENTRAL LI SOUND 0900            69 73   80/  4/  4   N/A           0
EASTERN LI SOUND 0900            65 69  360/  6/  8   N/A
ROBBINS REEF     1000            70     360/  4/  4   N/A
$$


>>>>>>>>>>>>>>>>>>>>>>>>>>>> KEY <<<<<<<<<<<<<<<<<<<<<<<<<<<
>                                                          <
>     SKY/WX - SKY CONDITION/PRESENT WEATHER               <
>     TMP    - TEMPERATURE IN FAHRENHEIT                   <
>     DP     - DEWPOINT IN FAHRENHEIT                      <
>     RH     - RELATIVE HUMIDITY IN PERCENT                <
>     WIND   - DIRECTION AND SPEED IN MPH                  <
>     PRES   - MEAN SEA LEVEL PRESSURE IN INCHES OF HG     <
>     WCI    - WIND CHILL INDEX                            <
>     VSB    - VISIBILITY IN MILES                         <
>     HX     - HEAT INDEX                                  <
>     TC     - TEMPERATURE IN CELSIUS                      <
>     VRB    - VARIABLE WIND DIRECTION                     <
>                                                          <
>>>>>>>>>>>>>>>>>>>>>>>>>>>> KEY <<<<<<<<<<<<<<<<<<<<<<<<<<<





USA.gov is the U.S. government's official web portal to all federal, state and local government web resources and services.